KK4MGJ Weather Reports


time (UTC)temp
C
wind
direction
speed
KPH
gust
KPH
rain 1hr
cm
rain 24hr
cm
rain mn
cm
humidity
%
barometer
mb
20260508085326 10 270 0.0 0.0 0.00 0.00 0.00 95 1015.2
20260508084824 10 338 0.0 0.0 0.00 0.00 0.00 95 1015.6
20260508084325 10 0 0.0 0.0 0.00 0.00 0.00 95 1015.6
20260508083825 10 338 0.0 0.0 0.00 0.00 0.00 95 1015.2
20260508083324 10 0 0.0 0.0 0.00 0.00 0.00 95 1015.2
20260508082825 10 270 0.0 0.0 0.00 0.00 0.00 95 1015.2
20260508082324 10 338 0.0 0.0 0.00 0.00 0.00 94 1015.2
20260508081825 11 293 0.0 0.0 0.00 0.00 0.00 94 1015.2
20260508081325 11 293 0.0 0.0 0.00 0.00 0.00 94 1014.9
20260508080824 11 338 0.0 0.0 0.00 0.00 0.00 94 1015.2
20260508080325 11 293 0.0 0.0 0.00 0.00 0.00 94 1014.9
20260508075824 11 23 0.0 0.0 0.00 0.00 0.00 94 1014.9
20260508075325 11 315 0.0 0.0 0.00 0.00 0.00 94 1014.9
20260508074824 11 0 1.6 1.6 0.00 0.00 0.00 94 1014.9
20260508074325 11 293 3.2 3.2 0.00 0.00 0.00 94 1014.9
20260508073825 11 0 3.2 3.2 0.00 0.00 0.00 94 1014.9
20260508073325 11 23 3.2 4.8 0.00 0.00 0.00 94 1014.9
20260508072824 11 338 4.8 4.8 0.00 0.00 0.00 94 1014.9
20260508072324 11 338 3.2 3.2 0.00 0.00 0.00 94 1014.9
20260508071824 11 270 3.2 4.8 0.00 0.00 0.00 94 1014.9
20260508071324 11 338 3.2 6.4 0.00 0.00 0.00 94 1014.9
20260508070825 12 270 3.2 4.8 0.00 0.00 0.00 94 1014.6
20260508070324 12 293 3.2 3.2 0.00 0.00 0.00 95 1014.9
20260508065826 12 293 3.2 3.2 0.00 0.00 0.00 95 1014.6
20260508065324 12 338 1.6 1.6 0.00 0.00 0.00 95 1014.6
20260508064824 12 338 0.0 3.2 0.00 0.00 0.00 95 1014.6
20260508064325 12 248 0.0 0.0 0.00 0.00 0.00 95 1014.6
20260508063825 12 23 1.6 0.0 0.00 0.00 0.00 95 1014.6
20260508063324 12 270 1.6 0.0 0.00 0.00 0.00 95 1014.6
20260508062826 12 270 0.0 0.0 0.00 0.00 0.00 95 1014.6
20260508062324 12 293 3.2 3.2 0.00 0.00 0.00 95 1014.6
20260508061824 12 270 0.0 3.2 0.00 0.00 0.00 95 1014.6
20260508061324 12 270 1.6 4.8 0.00 0.00 0.00 95 1014.6
20260508060825 12 270 1.6 1.6 0.00 0.00 0.00 95 1014.6
20260508060326 12 270 0.0 3.2 0.00 0.00 0.00 95 1014.6
20260508055824 12 293 3.2 0.0 0.00 0.00 0.00 95 1014.6
20260508055325 12 270 0.0 4.8 0.00 0.00 0.00 95 1014.6
20260508054824 12 270 0.0 0.0 0.00 0.00 0.00 95 1014.2
20260508054325 12 270 0.0 0.0 0.00 0.00 0.00 95 1014.2
20260508053825 12 270 0.0 0.0 0.00 0.00 0.00 95 1014.6
20260508053324 12 293 0.0 0.0 0.00 0.00 0.00 95 1014.6
20260508052824 12 270 0.0 3.2 0.00 0.00 0.00 94 1014.6
20260508052325 12 338 0.0 0.0 0.00 0.00 0.00 94 1014.2
20260508051825 12 293 0.0 0.0 0.00 0.00 0.00 94 1014.6
20260508051324 12 315 1.6 3.2 0.00 0.00 0.00 94 1014.2
20260508050825 12 293 0.0 0.0 0.00 0.00 0.00 94 1014.2
20260508050325 12 293 0.0 0.0 0.00 0.00 0.00 94 1014.6
20260508045825 12 293 0.0 0.0 0.00 0.00 0.00 94 1014.2
20260508045325 12 0 0.0 0.0 0.00 0.00 0.00 93 1014.2
20260508044824 12 338 0.0 0.0 0.00 0.00 0.00 93 1014.6
20260508044325 12 270 0.0 0.0 0.00 0.00 0.00 93 1014.6
20260508043824 12 315 0.0 0.0 0.00 0.00 0.00 93 1014.2
20260508042836 12 0 0.0 0.0 0.00 0.00 0.00 93 1014.2
20260508042325 12 315 0.0 0.0 0.00 0.00 0.00 93 1013.9
20260508041829 12 315 1.6 0.0 0.00 0.00 0.00 93 1013.5
20260508041324 12 0 0.0 3.2 0.00 0.00 0.00 93 1013.5
20260508040825 12 23 0.0 0.0 0.00 0.00 0.00 93 1013.5
20260508040325 12 68 0.0 0.0 0.00 0.00 1.83 93 1013.5
20260508035824 12 23 0.0 0.0 0.00 0.00 1.83 93 1013.5
20260508035324 12 203 0.0 0.0 0.00 0.00 1.83 93 1013.5
20260508034825 12 203 0.0 0.0 0.00 0.00 1.83 93 1013.5
20260508034325 12 270 0.0 0.0 0.00 0.00 1.83 93 1013.5
20260508033826 12 293 0.0 0.0 0.00 0.00 1.83 93 1013.9
20260508033332 12 248 0.0 0.0 0.00 0.00 1.83 93 1013.5
20260508032824 12 180 0.0 0.0 0.00 0.00 1.83 93 1013.5
20260508032325 12 248 0.0 0.0 0.00 0.00 1.83 93 1013.2
20260508031825 12 293 0.0 0.0 0.00 0.00 1.83 93 1013.2
20260508031324 12 225 0.0 0.0 0.00 0.00 1.83 93 1013.2
20260508030824 12 158 0.0 0.0 0.00 0.00 1.83 93 1013.5
20260508030325 12 0 0.0 0.0 0.00 0.00 1.83 93 1013.5
20260508025824 12 338 1.6 0.0 0.00 0.00 1.83 92 1013.5
20260508025325 12 338 0.0 0.0 0.00 0.00 1.83 92 1013.5
20260508024825 12 315 0.0 0.0 0.00 0.00 1.83 92 1013.2
20260508024324 12 293 0.0 0.0 0.00 0.00 1.83 92 1013.2
20260508023824 12 338 0.0 0.0 0.00 0.00 1.83 92 1012.9
20260508023325 12 338 0.0 0.0 0.00 0.00 1.83 92 1012.9
20260508022824 12 338 0.0 3.2 0.00 0.00 1.83 91 1012.5
20260508022325 12 203 0.0 0.0 0.00 0.00 1.83 91 1012.5
20260508021825 12 203 0.0 0.0 0.00 0.00 1.83 91 1012.9
20260508021324 12 203 0.0 0.0 0.00 0.00 1.83 91 1012.9
20260508020825 12 0 0.0 0.0 0.00 0.00 1.83 91 1012.9
20260508020324 12 90 0.0 0.0 0.00 0.00 1.83 91 1012.9
20260508015825 12 225 0.0 0.0 0.00 0.00 1.83 91 1012.9
20260508015324 12 248 0.0 0.0 0.00 0.00 1.83 90 1012.5
20260508014824 12 90 0.0 0.0 0.00 0.00 1.83 90 1012.2
20260508014324 12 225 0.0 0.0 0.00 0.00 1.83 90 1012.5
20260508013825 12 113 0.0 0.0 0.00 0.00 1.83 90 1012.2
20260508013325 12 203 0.0 0.0 0.00 0.00 1.83 90 1011.9
20260508012825 12 203 0.0 0.0 0.00 0.00 1.83 91 1012.5
20260508012324 12 270 0.0 1.6 0.00 0.00 1.83 90 1011.9
20260508011825 12 135 1.6 0.0 0.00 0.00 1.83 89 1011.9
20260508011324 12 113 1.6 3.2 0.00 0.00 1.83 89 1012.2
20260508010827 12 203 0.0 0.0 0.00 0.00 1.83 89 1012.2
20260508010325 12 45 0.0 0.0 0.00 0.00 1.83 89 1011.9
20260508005825 12 68 0.0 0.0 0.00 0.00 1.83 89 1011.9
20260508005324 12 203 0.0 0.0 0.00 0.00 1.83 89 1011.9
20260508004824 12 68 0.0 0.0 0.00 0.00 1.83 89 1011.9
20260508004324 12 225 0.0 0.0 0.00 0.00 1.83 89 1011.9
20260508003826 12 225 0.0 0.0 0.00 0.00 1.83 89 1011.5
20260508003325 12 338 0.0 3.2 0.00 0.00 1.83 89 1011.5
20260508002824 12 203 1.6 0.0 0.00 0.00 1.83 89 1011.2
20260508002324 13 225 0.0 0.0 0.00 0.00 1.83 89 1011.2
20260508001824 13 248 1.6 1.6 0.00 0.00 1.83 89 1011.2
20260508001325 13 270 1.6 1.6 0.00 0.00 1.83 89 1011.2
20260508000824 13 68 0.0 0.0 0.00 0.00 1.83 89 1011.2
20260508000327 13 270 0.0 0.0 0.00 0.00 1.83 89 1011.2
20260507235824 13 225 1.6 1.6 0.00 0.00 1.83 89 1011.2
20260507235325 13 90 1.6 1.6 0.00 0.00 1.83 89 1011.2
20260507234825 13 338 1.6 1.6 0.00 0.00 1.83 89 1010.8
20260507234324 13 0 1.6 3.2 0.00 0.00 1.83 89 1010.8
20260507233825 13 293 1.6 4.8 0.00 0.00 1.83 89 1010.8
20260507233325 13 45 1.6 0.0 0.00 0.00 1.83 89 1010.8
20260507232825 13 203 0.0 1.6 0.00 0.00 1.83 89 1010.8
20260507232324 13 248 1.6 3.2 0.00 0.00 1.83 89 1010.5
20260507231825 13 0 1.6 3.2 0.00 0.00 1.83 89 1010.5
20260507231325 13 135 0.0 0.0 0.00 0.00 1.83 90 1010.5
20260507230826 13 113 1.6 1.6 0.00 0.00 1.83 90 1010.5
20260507230324 13 45 1.6 1.6 0.00 0.00 1.83 90 1010.5
20260507225825 13 135 1.6 3.2 0.00 0.00 1.83 90 1010.5
20260507225325 13 90 1.6 4.8 0.00 0.00 1.83 91 1010.5
20260507224824 13 293 3.2 3.2 0.00 0.00 1.83 91 1010.5
20260507224324 13 338 1.6 3.2 0.00 0.00 1.83 90 1010.5
20260507223824 13 113 1.6 1.6 0.00 0.00 1.83 90 1010.5
20260507223324 13 23 4.8 6.4 0.00 0.00 1.83 90 1010.5
20260507222825 13 90 3.2 11.3 0.00 0.00 1.83 90 1010.2
20260507222325 13 248 4.8 3.2 0.00 0.00 1.83 89 1010.2
20260507221825 14 0 4.8 3.2 0.00 0.00 1.83 89 1010.2
20260507221324 14 338 4.8 4.8 0.00 0.00 1.83 89 1010.2
20260507220824 14 338 6.4 6.4 0.00 0.00 1.83 89 1009.8
20260507220325 14 270 4.8 6.4 0.00 0.00 1.83 89 1009.8
20260507215824 15 45 3.2 3.2 0.00 0.00 1.83 89 1009.5
20260507215324 15 203 1.6 4.8 0.00 0.00 1.83 89 1009.5
20260507214828 15 23 4.8 3.2 0.00 0.00 1.83 88 1009.5
20260507214325 15 68 6.4 9.7 0.00 0.00 1.83 88 1009.8
20260507213824 15 23 3.2 1.6 0.00 0.00 1.83 89 1009.5
20260507213324 15 270 3.2 0.0 0.00 0.00 1.83 89 1009.1
20260507212826 15 23 4.8 4.8 0.00 0.00 1.83 89 1008.8
20260507212324 15 90 6.4 6.4 0.00 0.00 1.83 89 1008.8
20260507211825 15 68 4.8 8.0 0.00 0.00 1.83 89 1008.8
20260507211325 15 45 6.4 4.8 0.00 0.00 1.83 89 1009.1
20260507210825 15 270 4.8 9.7 0.00 0.00 1.83 89 1008.8
20260507210325 15 0 6.4 6.4 0.00 0.00 1.83 88 1008.5
20260507205824 16 68 1.6 4.8 0.00 0.00 1.83 88 1008.5
20260507205325 16 68 1.6 4.8 0.00 0.00 1.83 88 1008.5
20260507204824 16 68 1.6 1.6 0.00 0.00 1.83 88 1008.5
20260507204326 15 225 3.2 1.6 0.00 0.00 1.83 89 1008.5
20260507203825 16 315 6.4 6.4 0.00 0.00 1.83 89 1008.5
20260507203325 16 338 4.8 8.0 0.00 0.00 1.83 88 1008.5
20260507202825 17 293 6.4 4.8 0.00 0.00 1.83 88 1008.5
20260507202324 17 23 9.7 6.4 0.00 0.00 1.83 87 1008.1
20260507201825 18 23 9.7 9.7 0.00 0.00 1.83 87 1008.1
20260507201324 18 0 8.0 9.7 0.00 0.00 1.83 86 1007.8
20260507200824 20 0 11.3 11.3 0.00 0.00 1.83 86 1007.5
20260507200325 21 315 6.4 11.3 0.00 0.00 1.83 84 1007.5
20260507195825 21 338 6.4 4.8 0.00 0.00 1.83 85 1007.1
20260507195324 22 270 4.8 4.8 0.00 0.00 1.83 87 1006.8
20260507194824 22 248 4.8 8.0 0.00 0.00 1.83 87 1007.1
20260507194325 22 248 4.8 6.4 0.00 0.00 1.83 87 1007.1
20260507193825 22 225 6.4 4.8 0.00 0.00 1.83 88 1007.5
20260507193324 22 248 4.8 3.2 0.00 0.00 1.83 89 1007.5
20260507192824 23 270 3.2 9.7 0.00 0.00 1.83 87 1007.5
20260507192324 22 315 4.8 6.4 0.00 0.00 1.83 89 1007.8
20260507191825 22 203 4.8 8.0 0.00 0.00 1.83 89 1007.8
20260507191324 21 270 4.8 6.4 0.00 0.00 1.83 91 1008.1
20260507190825 21 338 6.4 3.2 0.00 0.00 1.83 91 1008.1
20260507190325 21 270 4.8 6.4 0.00 0.00 1.83 90 1008.1
20260507185826 21 293 6.4 8.0 0.00 0.00 1.83 91 1007.8
20260507185325 22 203 4.8 6.4 0.00 0.00 1.83 91 1007.8
20260507184826 21 203 4.8 3.2 0.00 0.00 1.83 91 1007.8
20260507184324 21 270 4.8 4.8 0.00 0.00 1.83 91 1007.8
20260507183825 22 225 3.2 3.2 0.00 0.00 1.83 90 1007.5
20260507183324 21 203 6.4 6.4 0.00 0.00 1.83 90 1007.8
20260507182825 22 203 4.8 8.0 0.00 0.00 1.83 90 1007.8
20260507182325 22 113 4.8 3.2 0.03 0.00 1.83 91 1007.8
20260507181825 22 203 4.8 3.2 0.03 0.00 1.83 91 1007.8
20260507181325 22 90 4.8 6.4 0.03 0.00 1.83 92 1008.1
20260507180827 22 135 1.6 8.0 0.03 0.00 1.83 94 1008.1
20260507180325 22 270 1.6 3.2 0.05 0.00 1.83 93 1008.1
20260507175824 21 248 1.6 3.2 0.05 0.00 1.83 94 1008.5
20260507175325 21 248 1.6 1.6 0.05 0.00 1.83 95 1008.5
20260507174825 20 293 1.6 4.8 0.05 0.00 1.80 95 1008.5
20260507174325 20 225 3.2 4.8 0.05 0.00 1.78 95 1008.8
20260507173824 20 225 1.6 1.6 0.05 0.00 1.78 95 1009.1
20260507173325 21 225 0.0 0.0 0.05 0.00 1.78 95 1009.1
20260507172825 20 203 0.0 3.2 0.05 0.00 1.78 95 1009.1
20260507172324 20 248 3.2 1.6 0.05 0.00 1.75 95 1009.5
20260507171825 20 270 1.6 6.4 0.05 0.00 1.73 95 1009.5
20260507171325 20 270 1.6 6.4 0.08 0.00 1.73 95 1009.5
20260507170826 20 203 1.6 1.6 0.05 0.00 1.68 95 1009.5
20260507170325 20 68 1.6 3.2 0.05 0.00 1.65 95 1009.8
20260507165825 20 248 3.2 6.4 0.05 0.00 1.63 95 1009.5
20260507165324 20 135 1.6 1.6 0.05 0.00 1.60 95 1009.5
20260507164825 20 158 0.0 4.8 0.05 0.00 1.57 95 1009.5
20260507164325 20 248 1.6 0.0 0.05 0.00 1.55 95 1009.5
20260507163825 20 225 3.2 3.2 0.05 0.00 1.52 95 1009.5
20260507163325 20 225 1.6 1.6 0.08 0.00 1.52 95 1009.8
20260507162826 20 90 3.2 0.0 0.08 0.00 1.52 95 1009.8
20260507162325 20 270 1.6 0.0 0.05 0.00 1.50 95 1009.8
20260507161825 21 180 1.6 3.2 0.05 0.00 1.45 95 1009.8
20260507160900 20 225 1.6 1.6 0.03 0.00 1.37 95 1009.8
20260507160326 20 293 1.6 0.0 0.03 0.00 1.37 95 1009.8
20260507155824 20 225 1.6 0.0 0.03 0.00 1.32 94 1010.2
20260507155325 20 248 3.2 6.4 0.03 0.00 1.30 94 1010.2
20260507154825 21 203 4.8 4.8 0.03 0.00 1.27 93 1010.2
20260507154325 21 90 3.2 3.2 0.00 0.00 1.24 92 1010.5
20260507153825 21 270 3.2 3.2 0.00 0.00 1.22 91 1010.5
20260507153325 21 225 3.2 4.8 0.00 0.00 1.19 91 1010.5
20260507152824 21 248 4.8 6.4 0.00 0.00 1.19 91 1010.5
20260507152324 21 270 3.2 1.6 0.00 0.00 1.19 92 1010.5
20260507151826 21 270 3.2 3.2 0.00 0.00 1.19 91 1010.5
20260507151324 21 270 3.2 6.4 0.00 0.00 1.19 90 1010.5
20260507150826 21 248 3.2 4.8 0.00 0.00 1.19 90 1010.2
20260507150324 21 293 3.2 4.8 0.00 0.00 1.19 91 1010.2
20260507145824 21 270 4.8 9.7 0.00 0.00 1.19 90 1010.2
20260507145326 21 248 3.2 6.4 0.00 0.00 1.19 90 1010.2
20260507144825 21 225 4.8 3.2 0.00 0.00 1.19 91 1010.2
20260507144326 22 225 4.8 4.8 0.00 0.00 1.19 90 1010.2
20260507143824 21 293 3.2 6.4 0.00 0.00 1.19 91 1010.2
20260507143325 21 248 3.2 1.6 0.00 0.00 1.19 92 1010.2
20260507142824 21 248 3.2 8.0 0.00 0.00 1.19 92 1010.2
20260507142325 21 225 1.6 4.8 0.00 0.00 1.19 92 1010.2
20260507141824 21 225 1.6 3.2 0.00 0.00 1.19 92 1010.2
20260507141325 21 270 1.6 3.2 0.00 0.00 1.19 92 1010.2
20260507140824 21 270 0.0 1.6 0.00 0.00 1.19 93 1010.2
20260507140327 21 203 0.0 0.0 0.00 0.00 1.19 93 1010.2
20260507135825 21 225 3.2 1.6 0.00 0.00 1.19 93 1009.8
20260507135324 21 270 0.0 4.8 0.00 0.00 1.19 92 1009.8
20260507134827 21 225 0.0 1.6 0.00 0.00 1.19 92 1009.8
20260507134324 21 270 0.0 0.0 0.00 0.00 1.19 92 1009.8
20260507133824 21 203 1.6 4.8 0.00 0.00 1.19 92 1009.8
20260507133325 21 158 0.0 3.2 0.00 0.00 1.19 93 1009.8
20260507132825 21 225 1.6 0.0 0.00 0.00 1.19 93 1010.2
20260507132324 21 270 1.6 1.6 0.00 0.00 1.19 93 1010.2
20260507131825 21 248 1.6 3.2 0.00 0.00 1.19 93 1010.2
20260507131325 21 270 1.6 3.2 0.00 0.00 1.19 93 1010.2
20260507130825 20 113 3.2 0.0 0.00 0.00 1.19 93 1010.5
20260507130325 20 135 1.6 3.2 0.00 0.00 1.19 94 1010.5
20260507125824 20 135 3.2 3.2 0.00 0.00 1.19 95 1010.5
20260507125325 20 270 3.2 6.4 0.00 0.00 1.19 95 1010.8
20260507124824 20 203 3.2 1.6 0.00 0.00 1.19 95 1010.8
20260507124325 20 90 1.6 3.2 0.00 0.00 1.19 96 1011.2
20260507123825 20 203 3.2 3.2 0.03 0.00 1.19 96 1011.2
20260507123324 20 248 3.2 0.0 0.03 0.00 1.19 96 1011.2
20260507122825 20 158 0.0 1.6 0.03 0.00 1.19 96 1011.5
20260507122324 20 203 0.0 1.6 0.03 0.00 1.19 96 1011.2
20260507121825 20 270 1.6 3.2 0.03 0.00 1.19 96 1011.2
20260507121324 20 270 1.6 6.4 0.03 0.00 1.19 96 1011.5
20260507120824 20 270 3.2 0.0 0.03 0.00 1.19 96 1011.5
20260507120324 20 203 3.2 3.2 0.03 0.00 1.19 96 1011.5
20260507115825 20 270 1.6 4.8 0.03 0.00 1.17 96 1011.5
20260507115325 20 225 6.4 6.4 0.05 0.00 1.17 96 1011.5
20260507114824 20 248 6.4 8.0 0.05 0.00 1.17 96 1011.2
20260507114325 20 225 4.8 4.8 0.05 0.00 1.17 96 1010.8
20260507113825 20 158 3.2 8.0 0.03 0.00 1.12 96 1010.8
20260507113325 19 248 3.2 6.4 0.03 0.00 1.12 96 1010.8
20260507112824 19 270 3.2 6.4 0.03 0.00 1.12 96 1011.2
20260507112325 19 180 1.6 0.0 0.03 0.00 1.07 96 1011.2
20260507111825 19 158 1.6 3.2 0.03 0.00 1.07 96 1011.5
20260507111324 19 270 0.0 0.0 0.03 0.00 1.02 96 1011.5
20260507110826 19 270 1.6 0.0 0.03 0.00 1.02 96 1011.2
20260507110325 19 248 0.0 6.4 0.03 0.00 1.02 96 1011.2
20260507105824 19 0 1.6 0.0 0.03 0.00 0.99 96 1011.2
20260507105324 19 113 3.2 4.8 0.03 0.00 0.97 96 1010.8
20260507104826 19 113 3.2 4.8 0.05 0.00 0.97 96 1011.2
20260507104325 19 90 3.2 3.2 0.05 0.00 0.97 96 1011.2
20260507103825 19 113 1.6 1.6 0.08 0.00 0.97 96 1011.2
20260507103324 19 90 0.0 1.6 0.10 0.00 0.97 96 1010.8
20260507102824 19 135 0.0 0.0 0.10 0.00 0.97 96 1010.8
20260507102325 19 203 0.0 3.2 0.13 0.00 0.97 96 1010.8
20260507101824 19 248 1.6 4.8 0.13 0.00 0.94 96 1010.8
20260507101325 19 23 0.0 0.0 0.13 0.00 0.91 96 1010.8
20260507100825 19 225 0.0 0.0 0.13 0.00 0.91 95 1010.8
20260507100324 19 113 3.2 4.8 0.13 0.00 0.89 95 1011.2
20260507095825 19 135 3.2 8.0 0.13 0.00 0.86 95 1011.2
20260507095325 19 68 3.2 3.2 0.10 0.00 0.81 95 1011.2
20260507094824 19 113 6.4 11.3 0.10 0.00 0.76 95 1011.2
20260507094324 19 293 4.8 3.2 0.10 0.00 0.71 95 1011.5
20260507093825 19 180 3.2 4.8 0.08 0.00 0.61 95 1011.9
20260507093325 19 225 1.6 3.2 0.05 0.00 0.46 95 1011.5
20260507092825 19 248 0.0 0.0 0.03 0.00 0.41 95 1011.9
20260507092330 19 225 0.0 0.0 0.03 0.00 0.38 95 1011.9
20260507091826 18 270 0.0 1.6 0.03 0.00 0.36 95 1011.9
20260507091324 18 270 1.6 1.6 0.03 0.00 0.33 95 1011.5
20260507090825 18 270 0.0 1.6 0.00 0.00 0.30 95 1011.5
20260507090325 18 158 0.0 0.0 0.00 0.00 0.30 95 1011.5
20260507085825 18 158 1.6 0.0 0.00 0.00 0.28 95 1011.5